Location: Newark
(35.8833°N, 14.5000°E)
Time: 03:39:03
(UTC+00:00)

UNISAT 6 - Pass Details

Date: 20 May 2019
Orbit: 606 x 690 km, 97.8° (Epoch: 25 June)

Event Time Altitude Azimuth Distance (km) Brightness Sun altitude
Rises 18:43:58 0° 38° (NE) 2,925 ? -7.9°
Reaches altitude 10° 18:47:59 10° 75° (ENE) 1,990 ? -8.6°
Maximum altitude 18:49:07 11° 91° (E) 1,923 ? -8.8°
Enters shadow 18:50:08 10° 105° (ESE) 1,964 ? -8.9°
